When you browse on this site, cookies collect data to enhance your experience and personalize the content and advertising you see.
Visit our Privacy Policy to learn more. By continuing to use the site, you agree to this use of cookies and data.
  • In Schweiz
  • Länderverzeichnis
  • Für 7 Tage
  • Wassertemperatur
  • Satellitenkarten
  • Wetterkarte
  • Widgets
  • user-avatar
    Anmelden

    Stündliche Wetter Chumara

    Heute, 20 Februar, Mittwoch

    Zeit Temperatur Niederschläge Wind Luftdruck Luftfeuchtigkeit
    00:00 -19°C° 0 mm 2 m/S 751 mmHg 92%
    01:00 -19°C° 0 mm 2 m/S 751 mmHg 92%
    02:00 -18°C° 0 mm 1 m/S 751 mmHg 92%
    03:00 -18°C° 0 mm 1 m/S 751 mmHg 92%
    04:00 -18°C° 0 mm 1 m/S 751 mmHg 93%
    05:00 -18°C° 0 mm 1 m/S 751 mmHg 93%
    06:00 -18°C° 0 mm 1 m/S 751 mmHg 94%
    07:00 -18°C° 0 mm 1 m/S 751 mmHg 94%
    08:00 -17°C° 0 mm 1 m/S 751 mmHg 93%
    09:00 -18°C° 0 mm 2 m/S 752 mmHg 92%
    10:00 -17°C° 0 mm 2 m/S 752 mmHg 92%
    11:00 -16°C° 0 mm 3 m/S 752 mmHg 91%
    12:00 -15°C° 0 mm 3 m/S 751 mmHg 91%
    13:00 -14°C° 0 mm 3 m/S 751 mmHg 91%
    14:00 -14°C° 0 mm 4 m/S 751 mmHg 91%
    15:00 -14°C° 0 mm 4 m/S 751 mmHg 91%
    16:00 -13°C° 0 mm 5 m/S 750 mmHg 92%
    17:00 -13°C° 0 mm 5 m/S 750 mmHg 92%
    18:00 -13°C° 0 mm 5 m/S 750 mmHg 92%
    19:00 -13°C° 0 mm 5 m/S 750 mmHg 92%
    20:00 -12°C° 0 mm 5 m/S 749 mmHg 92%
    21:00 -12°C° 0 mm 5 m/S 749 mmHg 92%
    22:00 -11°C° 0 mm 5 m/S 748 mmHg 91%
    23:00 -11°C° 0.1 mm 5 m/S 748 mmHg 91%

    Morgen, 21 Februar, Donnerstag

    Zeit Temperatur Niederschläge Wind Luftdruck Luftfeuchtigkeit
    00:00 -11°C° 0.1 mm 6 m/S 748 mmHg 91%
    01:00 -10°C° 0.1 mm 6 m/S 748 mmHg 91%
    02:00 -10°C° 0.1 mm 6 m/S 747 mmHg 91%
    03:00 -9°C° 0.1 mm 6 m/S 747 mmHg 91%
    04:00 -9°C° 0.1 mm 6 m/S 747 mmHg 91%
    05:00 -9°C° 0.1 mm 6 m/S 747 mmHg 91%
    06:00 -9°C° 0.1 mm 6 m/S 747 mmHg 91%
    07:00 -9°C° 0.1 mm 6 m/S 747 mmHg 91%
    08:00 -8°C° 0.1 mm 6 m/S 747 mmHg 91%
    09:00 -8°C° 0.1 mm 6 m/S 747 mmHg 90%
    10:00 -8°C° 0.1 mm 6 m/S 747 mmHg 90%
    11:00 -8°C° 0.2 mm 6 m/S 747 mmHg 90%
    12:00 -6°C° 0.2 mm 6 m/S 747 mmHg 90%
    13:00 -6°C° 0.2 mm 6 m/S 747 mmHg 90%
    14:00 -5°C° 0.1 mm 6 m/S 748 mmHg 90%
    15:00 -5°C° 0.1 mm 6 m/S 748 mmHg 90%
    16:00 -5°C° 0.1 mm 5 m/S 748 mmHg 89%
    17:00 -5°C° 0.3 mm 5 m/S 748 mmHg 91%
    18:00 -5°C° 0.3 mm 5 m/S 748 mmHg 92%
    19:00 -6°C° 0.3 mm 5 m/S 748 mmHg 93%
    20:00 -6°C° 0.4 mm 5 m/S 748 mmHg 93%
    21:00 -6°C° 0.4 mm 5 m/S 749 mmHg 93%
    22:00 -6°C° 0.4 mm 5 m/S 749 mmHg 93%
    23:00 -5°C° 0.4 mm 5 m/S 748 mmHg 93%

    übermorgen, 22 Februar, Freitag

    Zeit Temperatur Niederschläge Wind Luftdruck Luftfeuchtigkeit
    00:00 -5°C° 0.4 mm 5 m/S 748 mmHg 93%
    01:00 -4°C° 0.4 mm 5 m/S 748 mmHg 93%
    02:00 -4°C° 0.3 mm 5 m/S 748 mmHg 92%
    03:00 -2°C° 0.3 mm 5 m/S 748 mmHg 91%
    04:00 -2°C° 0.3 mm 5 m/S 748 mmHg 90%
    05:00 -3°C° 0.1 mm 6 m/S 748 mmHg 90%
    06:00 -3°C° 0.1 mm 6 m/S 747 mmHg 89%
    07:00 -3°C° 0.1 mm 6 m/S 747 mmHg 89%
    08:00 -3°C° 0.1 mm 7 m/S 747 mmHg 89%
    09:00 -4°C° 0.1 mm 7 m/S 747 mmHg 88%
    10:00 -4°C° 0.1 mm 7 m/S 747 mmHg 88%
    11:00 -4°C° 0.1 mm 7 m/S 747 mmHg 89%
    12:00 -6°C° 0.1 mm 7 m/S 747 mmHg 89%
    13:00 -6°C° 0.1 mm 7 m/S 747 mmHg 89%
    14:00 -6°C° 0.3 mm 7 m/S 747 mmHg 89%
    15:00 -4°C° 0.3 mm 7 m/S 747 mmHg 88%
    16:00 -4°C° 0.3 mm 7 m/S 747 mmHg 88%
    17:00 -4°C° 0.3 mm 6 m/S 747 mmHg 89%
    18:00 -5°C° 0.3 mm 6 m/S 748 mmHg 91%
    19:00 -5°C° 0.3 mm 5 m/S 748 mmHg 92%
    20:00 -5°C° 0.4 mm 5 m/S 748 mmHg 91%
    21:00 -5°C° 0.4 mm 6 m/S 749 mmHg 91%
    22:00 -5°C° 0.4 mm 6 m/S 749 mmHg 90%
    23:00 -8°C° 0 mm 5 m/S 750 mmHg 90%

    23 Februar, Samstag

    Zeit Temperatur Niederschläge Wind Luftdruck Luftfeuchtigkeit
    00:00 -10°C° 0 mm 4 m/S 751 mmHg 90%
    01:00 -13°C° 0 mm 3 m/S 752 mmHg 90%
    02:00 -13°C° 0 mm 3 m/S 752 mmHg 91%
    03:00 -14°C° 0 mm 3 m/S 753 mmHg 92%
    04:00 -15°C° 0 mm 4 m/S 753 mmHg 92%
    05:00 -14°C° 0.1 mm 4 m/S 754 mmHg 93%
    06:00 -12°C° 0.1 mm 4 m/S 754 mmHg 93%
    07:00 -11°C° 0.1 mm 4 m/S 754 mmHg 93%
    08:00 -10°C° 0 mm 4 m/S 755 mmHg 92%
    09:00 -10°C° 0 mm 4 m/S 755 mmHg 91%
    10:00 -10°C° 0 mm 4 m/S 756 mmHg 90%
    11:00 -9°C° 0.1 mm 4 m/S 756 mmHg 90%
    12:00 -9°C° 0.1 mm 4 m/S 756 mmHg 89%
    13:00 -8°C° 0.1 mm 4 m/S 757 mmHg 89%
    14:00 -8°C° 0.1 mm 4 m/S 757 mmHg 90%
    15:00 -8°C° 0.1 mm 4 m/S 757 mmHg 90%
    16:00 -6°C° 0.1 mm 3 m/S 757 mmHg 90%
    17:00 -8°C° 0.1 mm 4 m/S 758 mmHg 91%
    18:00 -8°C° 0.1 mm 4 m/S 758 mmHg 92%
    19:00 -9°C° 0.1 mm 4 m/S 759 mmHg 92%
    20:00 -9°C° 0 mm 3 m/S 759 mmHg 93%
    21:00 -10°C° 0 mm 3 m/S 759 mmHg 93%
    22:00 -13°C° 0 mm 3 m/S 759 mmHg 94%
    23:00 -10°C° 0 mm 2 m/S 760 mmHg 94%

    24 Februar, Sonntag

    Zeit Temperatur Niederschläge Wind Luftdruck Luftfeuchtigkeit
    00:00 -10°C° 0 mm 2 m/S 760 mmHg 94%
    01:00 -10°C° 0 mm 2 m/S 760 mmHg 95%
    02:00 -10°C° 0.1 mm 3 m/S 760 mmHg 95%
    03:00 -9°C° 0.1 mm 3 m/S 761 mmHg 95%
    04:00 -10°C° 0.1 mm 4 m/S 761 mmHg 95%
    05:00 -11°C° 0.1 mm 4 m/S 761 mmHg 94%
    06:00 -12°C° 0.1 mm 4 m/S 761 mmHg 94%
    07:00 -12°C° 0.1 mm 4 m/S 761 mmHg 94%
    08:00 -12°C° 0 mm 4 m/S 762 mmHg 93%
    09:00 -12°C° 0 mm 4 m/S 762 mmHg 93%
    10:00 -13°C° 0 mm 5 m/S 762 mmHg 92%
    11:00 -12°C° 0 mm 5 m/S 762 mmHg 92%
    12:00 -12°C° 0 mm 5 m/S 762 mmHg 91%
    13:00 -11°C° 0 mm 5 m/S 762 mmHg 90%
    14:00 -11°C° 0 mm 5 m/S 762 mmHg 89%
    15:00 -11°C° 0 mm 5 m/S 762 mmHg 88%
    16:00 -11°C° 0 mm 5 m/S 762 mmHg 87%
    17:00 -11°C° 0 mm 5 m/S 762 mmHg 88%
    18:00 -11°C° 0 mm 5 m/S 762 mmHg 89%
    19:00 -12°C° 0 mm 5 m/S 762 mmHg 91%
    20:00 -12°C° 0 mm 5 m/S 762 mmHg 91%
    21:00 -13°C° 0 mm 5 m/S 762 mmHg 91%
    22:00 -14°C° 0 mm 5 m/S 762 mmHg 91%
    23:00 -14°C° 0.1 mm 5 m/S 762 mmHg 91%

    25 Februar, Montag

    Zeit Temperatur Niederschläge Wind Luftdruck Luftfeuchtigkeit
    00:00 -14°C° 0.1 mm 5 m/S 762 mmHg 92%
    01:00 -14°C° 0.1 mm 5 m/S 761 mmHg 92%
    02:00 -14°C° 0.1 mm 5 m/S 761 mmHg 93%
    03:00 -14°C° 0.1 mm 5 m/S 761 mmHg 93%
    04:00 -14°C° 0.1 mm 4 m/S 761 mmHg 93%
    05:00 -14°C° 0 mm 4 m/S 760 mmHg 93%
    06:00 -14°C° 0 mm 4 m/S 760 mmHg 94%
    07:00 -14°C° 0 mm 4 m/S 760 mmHg 94%
    08:00 -13°C° 0 mm 5 m/S 759 mmHg 94%
    09:00 -13°C° 0 mm 5 m/S 759 mmHg 94%
    10:00 -12°C° 0 mm 5 m/S 759 mmHg 94%
    11:00 -11°C° 0 mm 5 m/S 758 mmHg 93%
    12:00 -11°C° 0 mm 5 m/S 758 mmHg 92%
    13:00 -10°C° 0 mm 5 m/S 757 mmHg 91%
    14:00 -10°C° 0 mm 5 m/S 757 mmHg 91%
    15:00 -10°C° 0 mm 5 m/S 756 mmHg 91%
    16:00 -8°C° 0 mm 5 m/S 756 mmHg 91%
    17:00 -10°C° 0 mm 5 m/S 755 mmHg 91%
    18:00 -10°C° 0 mm 5 m/S 755 mmHg 91%
    19:00 -10°C° 0 mm 5 m/S 755 mmHg 91%
    20:00 -10°C° 0 mm 5 m/S 755 mmHg 91%
    21:00 -10°C° 0 mm 5 m/S 754 mmHg 91%
    22:00 -10°C° 0 mm 5 m/S 754 mmHg 91%
    23:00 -10°C° 0 mm 5 m/S 754 mmHg 91%
    Mehr zeigen